7 * 24
多渠道服务支持
RADUGA 24 是一颗由俄罗斯制造的军用通信卫星,于2021年发射,旨在增强俄罗斯武装部队的战术通信能力。该卫星具备抗干扰和加密通信功能,支持地面部队、海军和空军的实时数据传输。其轨道设计使其能够覆盖俄罗斯全境及周边地区,提高军事指挥与控制效率。RADUGA 24 是俄罗斯“彩虹”系列卫星的一部分,体现了俄罗斯在发展自主军事通信系统方面的努力。
数据来源 | 国际轨道数据 |
星历时间: | 2025-10-14T01:08:26+0800 20小时前 查看轨道信息 |
半长轴: | 42147.244km |
偏心率: | 0.0003736 |
轨道倾角: | 12.774° |
近地点辐角 | 264.241° |
升交点赤经 | 335.533° |
平近点角 | 103.663° |
近地点: | 35753.362km |
远地点: | 35784.856km |
周期: | 1435.204分钟 |
每日圈数: | 1.003342 |